Location: Montamat
(43.4852°N, 0.8444°E)
Time: 15:01:23
(UTC+00:00)

Cosmos 1782 - Pass Details

Date: 14 May 2026
Orbit: 458 x 463 km, 82.5° (Epoch: 10 June)

Event Time Altitude Azimuth Distance (km) Brightness Sun altitude
Rises 19:53:08 0° 173° (S) 2,471 5.8 -7.0°
Reaches altitude 10° 19:55:15 10° 166° (SSE) 1,604 4.8 -7.3°
Maximum altitude 19:58:35 44° 94° (E) 656 2.8 -7.8°
Drops below altitude 10° 20:01:58 10° 21° (NNE) 1,623 5.4 -8.3°
Sets 20:04:07 0° 15° (NNE) 2,505 6.5 -8.6°
